Location: Dampvalley
(47.9094°N, 6.1967°E)
Time: 03:31:47
(UTC+00:00)

N. Korean satellite - Pass Details

Date: 10 December 2022
Orbit: 407 x 444 km, 97.3° (Epoch: 28 January)

Event Time Altitude Azimuth Distance (km) Brightness Sun altitude
Rises 04:15:37 0° 24° (NNE) 2,494 10.4 -28.7°
Reaches altitude 10° 04:17:59 10° 39° (NE) 1,604 9.6 -28.3°
Maximum altitude 04:20:48 23° 94° (E) 995 8.8 -27.8°
Drops below altitude 10° 04:23:34 10° 150° (SSE) 1,567 9.5 -27.4°
Sets 04:25:50 0° 165° (SSE) 2,420 10.4 -27.0°
